[ hide orbit diagram ]
For accurate long-term ephemerides, please instead use our Horizons system.This orbit viewer was implemented using two-body methods, and hence should not be used for determining accurate long-term trajectories (over several years or decades) or planetary encounter circumstances.
Orbital Elements at Epoch 2459200.5 (2020-Dec-17.0) TDB
Reference: JPL 11 (heliocentric ecliptic J2000)
Element | Value | Uncertainty (1-sigma) | Units |
e | .1371572171194627 | 6.9685e-08 | |
a | 3.144749400713093 | 3.2566e-08 | au |
q | 2.713424324373187 | 2.246e-07 | au |
i | 2.167857590495148 | 8.3536e-06 | deg |
node | 58.21377633049932 | 0.00017296 | deg |
peri | 96.72158078345426 | 0.00017647 | deg |
M | 266.9796810991014 | 3.3669e-05 | deg |
tp | 2459726.823564599302 (2022-May-27.32356460) | 0.00019347 | TDB |
period | 2036.936504782486 5.58 | 3.1641e-05 8.663e-08 | d yr |
n | .1767359950370385 | 2.7453e-09 | deg/d |
Q | 3.576074477052999 | 3.7033e-08 | au |
|
| | Orbit Determination Parameters
Additional Information
|
[ show covariance matrix ]
Physical Parameter Table
Parameter |
Symbol |
Value |
Units |
Sigma |
Reference |
Notes |
absolute magnitude |
H |
16.3 |
|
n/a |
MPO476117 |
|
|
266030 (2006 GL25) Discovered 2006-Apr-02 by Spacewatch at Kitt Peak |
Reference: 20110218/Numbers.arc | Last Updated: 2011-02-22 |
|
[ hide close-approach data ]
Close-Approach Data ...sorted by Date/Time (TDB)
|
Date/Time (TDB) |
Time Uncertainty (days_HH:MM) |
Body |
Nominal Distance (au) |
Minimum Distance (au) |
Maximum Distance (au) |
V-relative (km/s) |
V-infinity (km/s) |
JD (TDB) |
Time Uncertainty (minutes) |
Semi-major axis (km) |
Semi-minor axis (km) |
range-LOV angle (deg) |
N-sigma |
BP |
Orbit Ref. |
Reference |
Modified |
1964-Oct-16 00:01 |
00:03 |
Jupiter |
1.85734317433227 |
1.85734082942187 |
1.85734551924097 |
3.06511732997224 |
2.9125357563977 |
2438684.500868579 |
3.09005041940159 |
83.1144206898192 |
54.1064493980058 |
22.15490543578 |
648821.010801135 |
T |
11 |
CATAB v2.0f-lin.ifort 2021-Feb-24 14:13:47 |
2021-Feb-24 14:13 |
1975-Apr-03 00:20 |
00:03 |
Jupiter |
1.49525324175089 |
1.49525188111496 |
1.49525460238486 |
1.5440874964212 |
1.11859627220527 |
2442505.513701332 |
2.50089511052777 |
350.121922597461 |
247.799428497172 |
42.863776200932 |
684133.279654525 |
T |
11 |
CATAB v2.0f-lin.ifort 2021-Feb-24 14:13:47 |
2021-Feb-24 14:13 |
1985-Sep-25 14:39 |
00:02 |
Jupiter |
1.55193756779473 |
1.55193671079749 |
1.55193842479375 |
1.53444026814762 |
1.12380566180586 |
2446334.110205336 |
1.78981146060926 |
252.940003674908 |
118.128501824308 |
60.9349817631402 |
1434217.84326757 |
T |
11 |
CATAB v2.0f-lin.ifort 2021-Feb-24 14:13:47 |
2021-Feb-24 14:13 |
1996-Mar-20 14:38 |
00:01 |
Jupiter |
1.95647151396616 |
1.95647032496848 |
1.95647270296339 |
2.91086432682541 |
2.7581268396197 |
2450163.109628208 |
1.14537955708289 |
78.5898488724901 |
38.6705392995532 |
84.994078332875 |
1285378.2086324 |
T |
11 |
CATAB v2.0f-lin.ifort 2021-Feb-24 14:13:47 |
2021-Feb-24 14:13 |
2060-Mar-07 16:19 |
00:02 |
Jupiter |
1.97807793681065 |
1.97807673201926 |
1.97807914160181 |
3.58921081361584 |
3.46785591043613 |
2473526.179670886 |
2.03011416700117 |
50.1597111361888 |
47.1520177447297 |
65.9159411857895 |
1288581.24423587 |
T |
11 |
CATAB v2.0f-lin.ifort 2021-Feb-24 14:13:47 |
2021-Feb-24 14:13 |
2070-Aug-29 09:44 |
00:03 |
Jupiter |
1.56158505514191 |
1.5615836668208 |
1.56158644345992 |
1.81781876604964 |
1.48984596897946 |
2477352.905326971 |
2.73445518683808 |
181.024843026579 |
102.849481299438 |
88.5562749169227 |
687904.741981902 |
T |
11 |
CATAB v2.0f-lin.ifort 2021-Feb-24 14:13:47 |
2021-Feb-24 14:13 |
2081-Feb-22 05:34 |
00:03 |
Jupiter |
1.473454257777 |
1.47345327016792 |
1.47345524541632 |
1.36134140975907 |
0.838773197439544 |
2481182.732061576 |
3.37733109128424 |
651.033779835651 |
329.673340849074 |
53.7406441453891 |
1283782.92747727 |
T |
11 |
CATAB v2.0f-lin.ifort 2021-Feb-24 14:13:47 |
2021-Feb-24 14:13 |
2091-Aug-16 14:05 |
00:04 |
Jupiter |
1.81853014784424 |
1.81852773587651 |
1.81853255980937 |
2.42614024288373 |
2.22589536537874 |
2485010.086657229 |
4.05333808307761 |
102.440563255057 |
51.2114480818211 |
-76.7449356738865 |
677260.735438104 |
T |
11 |
CATAB v2.0f-lin.ifort 2021-Feb-24 14:13:47 |
2021-Feb-24 14:13 |
2166-Feb-01 18:27 |
00:08 |
Jupiter |
1.67136971223379 |
1.67136558532591 |
1.6713738391275 |
2.23596828792345 |
1.99649374565537 |
2512207.268854907 |
8.03653665288654 |
103.965375159001 |
26.6886843540363 |
87.4706197009294 |
314333.511927228 |
T |
11 |
CATAB v2.0f-lin.ifort 2021-Feb-24 14:13:47 |
2021-Feb-24 14:13 |
2176-Jul-23 10:07 |
00:09 |
Jupiter |
1.44726312807964 |
1.44726227858091 |
1.44726397762361 |
1.34425853640914 |
0.797818743441575 |
2516031.921833843 |
8.52629441274465 |
792.651963990453 |
658.314226808698 |
76.8926559933353 |
876394.925234847 |
T |
11 |
CATAB v2.0f-lin.ifort 2021-Feb-24 14:13:47 |
2021-Feb-24 14:13 |
2187-Jan-14 10:35 |
00:09 |
Jupiter |
1.69133181821592 |
1.69132661257569 |
1.69133702384663 |
2.00774109625743 |
1.74052294500148 |
2519858.940884667 |
9.39959008369138 |
302.487778193929 |
15.1564529070594 |
85.95597177571 |
726026.223586779 |
T |
11 |
CATAB v2.0f-lin.ifort 2021-Feb-24 14:13:47 |
2021-Feb-24 14:13 |
|
|